Wind_Speed
23 21 20 19 19 18 18 20 22 22 23 21 19 18 16 15 12 10 9 8 8 6 6 7 8 9 9 8 8 7 7 7 7 7 7 7 6 6 7 7 7 7 8 8 8 7 7 6 6
25 24 23 22 20 18 18 21 23 24 24 22 20 18 17 15 14 12 11 10 8 7 7 8 9 9 10 10 9 9 8 8 9 8 8 8 8 7 7 7 7 7 7 7 6 6 5 5 5
27 26 26 24 21 18 19 22 24 26 26 24 22 20 19 17 16 13 11 10 9 9 9 9 10 11 11 11 10 10 9 10 10 10 10 9 9 8 7 7 7 7 6 6 5 5 4 4 4
27 28 28 26 22 20 21 23 26 27 27 26 24 23 21 19 17 15 12 11 12 11 11 11 11 11 12 12 12 11 11 11 11 11 11 10 9 9 8 7 7 6 6 5 4 4 3 3 4
27 28 29 26 23 22 24 26 28 29 28 27 26 25 23 20 17 14 12 12 12 13 13 12 12 13 13 13 13 12 12 12 12 12 11 11 10 9 8 8 7 6 5 4 4 3 3 3 3
27 28 29 27 25 25 27 29 30 31 30 28 27 26 24 22 17 15 13 13 13 14 13 13 13 13 13 13 13 13 13 13 13 13 12 11 10 9 9 8 7 6 5 4 4 4 3 3 4
26 28 28 27 27 28 29 32 33 34 32 31 29 28 25 22 19 15 14 13 13 13 13 13 14 13 13 13 13 14 14 14 14 13 13 12 11 10 9 8 7 7 6 5 5 4 4 4 4
26 28 28 28 28 29 32 35 35 36 35 33 31 30 26 24 21 18 15 15 14 13 14 14 13 13 12 12 13 13 13 14 14 14 13 12 11 11 10 9 8 8 7 6 6 5 5 5 5
27 28 27 27 29 30 34 37 38 38 37 36 34 31 28 25 22 20 16 14 14 14 15 13 12 12 12 12 12 12 13 13 14 14 14 13 13 12 11 10 9 9 8 8 7 7 6 6 6
28 28 26 28 30 32 36 39 40 41 40 38 36 34 30 26 22 18 16 14 13 14 14 13 12 11 11 12 12 12 13 14 14 14 14 14 14 13 12 12 11 10 10 9 9 8 7 7 7
29 29 28 29 30 33 36 39 41 43 42 39 37 35 33 28 23 20 16 13 13 14 15 14 12 12 11 12 12 13 13 14 15 15 15 15 15 14 13 13 13 12 11 11 10 9 9 8 9
30 30 30 30 31 33 35 38 41 43 42 41 40 37 34 29 24 20 17 15 13 14 15 14 13 12 12 12 12 13 13 14 15 15 15 15 15 15 14 14 14 13 13 13 12 11 11 10 11
30 30 30 29 31 32 34 37 41 42 42 43 42 39 35 29 25 21 18 15 15 15 16 15 14 13 13 12 12 13 14 15 15 15 15 16 16 16 16 16 15 15 15 14 14 13 12 12 13
29 29 28 28 28 30 32 35 39 39 41 42 41 39 35 30 25 22 19 17 15 16 17 16 15 13 13 12 13 14 14 15 15 16 16 16 17 17 17 17 17 17 16 16 15 15 14 14 15
28 27 25 25 26 28 31 32 35 36 39 41 41 39 36 32 27 24 20 18 16 17 17 17 16 14 14 14 14 14 14 15 16 17 17 17 18 18 19 19 19 18 18 18 17 17 17 17 18
26 25 23 23 25 26 30 30 30 34 37 39 40 39 36 34 29 25 22 20 19 18 18 19 18 17 16 16 15 15 15 16 17 18 18 19 20 20 20 21 21 21 20 20 19 19 19 20 20
24 23 22 22 24 26 29 29 29 32 35 38 39 39 38 35 31 27 25 23 21 21 21 21 21 20 19 19 19 19 18 18 19 20 20 21 22 22 22 22 22 22 21 21 21 21 21 22 22
22 22 21 21 23 26 28 28 27 30 33 36 38 39 39 36 33 30 28 25 24 23 23 23 24 23 22 21 21 22 21 21 21 22 22 23 23 23 24 24 23 23 22 22 23 23 23 24 25
21 21 20 20 23 26 27 27 27 28 31 34 37 38 38 38 35 33 31 29 27 26 25 25 25 24 25 24 25 25 24 24 24 25 25 25 25 25 25 25 25 25 25 24 25 25 25 26 26
21 20 19 18 21 24 25 26 26 26 29 31 34 36 38 38 37 36 35 33 31 29 29 28 26 25 26 26 26 28 27 27 26 25 26 26 27 27 27 27 27 27 26 26 26 27 27 27 27
20 19 17 17 20 22 23 23 23 24 27 29 31 33 35 36 37 37 36 35 33 31 30 30 28 26 26 27 29 30 28 27 27 26 27 27 29 30 29 29 29 28 28 27 26 27 27 27 27
18 18 18 18 20 20 21 21 20 21 23 26 28 31 33 35 36 37 37 36 34 33 31 31 30 29 29 28 28 29 29 27 26 27 28 29 30 31 31 29 29 28 27 26 24 24 25 26 26
18 18 19 19 19 21 20 21 20 20 20 22 25 27 29 31 34 36 36 36 35 34 32 31 30 31 31 29 27 26 26 26 26 27 27 27 29 29 30 29 27 25 24 24 24 24 24 26 27
18 19 20 20 18 19 19 20 20 19 19 21 22 24 27 29 31 33 34 35 34 34 33 32 31 31 31 29 27 25 25 23 24 25 25 25 26 27 26 26 26 24 23 24 24 25 26 27 28
18 18 19 19 19 19 19 19 18 18 18 18 20 22 25 27 28 29 31 32 32 33 33 32 31 31 30 28 26 25 25 23 21 21 21 23 24 25 24 24 24 24 24 25 26 27 28 29 31
15 17 17 17 17 17 18 19 16 16 16 16 17 21 23 24 26 27 29 30 30 30 31 31 31 29 28 27 26 25 25 23 23 22 22 21 21 21 21 21 23 24 25 26 27 27 29 31 33
14 15 16 17 17 17 18 18 17 15 15 16 17 19 20 21 24 26 27 28 28 29 28 28 28 28 28 27 26 25 24 24 23 23 22 21 20 20 21 23 24 25 26 28 29 29 31 33 34
13 14 15 16 16 16 17 16 16 17 16 16 16 18 19 19 20 22 23 24 25 26 26 26 27 28 28 28 26 25 24 23 23 22 23 22 21 21 21 22 24 26 28 29 31 32 34 35 36
11 13 14 16 16 16 16 15 15 15 15 15 15 15 17 20 21 22 23 24 25 25 26 27 28 27 26 25 25 24 24 24 23 22 22 22 22 23 24 26 28 29 30 32 33 34 35 36 37
11 13 13 14 15 15 15 14 14 13 13 13 13 14 17 18 20 20 21 22 24 24 25 25 26 25 24 24 24 24 24 24 23 23 23 23 24 25 27 28 30 31 33 34 35 35 36 37 38
Wind_Direction
257 256 256 255 252 249 246 242 243 244 245 248 253 259 258 252 242 222 209 199 191 194 211 224 238 244 243 246 249 251 255 260 264 269 275 280 286 292 297 299 303 307 310 311 312 312 314 317 318
256 256 257 255 254 252 248 245 244 246 248 250 252 258 259 254 242 224 212 199 192 200 212 224 234 240 243 246 249 251 254 259 264 270 275 279 281 285 289 292 296 301 305 307 308 309 313 315 316
255 256 256 256 255 252 250 248 247 249 250 252 254 257 263 256 243 227 218 208 201 206 215 226 235 240 245 246 249 249 252 256 262 267 273 276 278 280 283 286 291 296 299 301 302 305 308 309 309
255 256 257 257 256 251 250 250 250 251 253 254 256 259 262 258 244 230 222 214 213 207 213 224 232 240 241 243 246 247 249 252 257 262 268 271 273 274 278 282 288 291 293 293 296 299 300 304 307
255 256 258 258 255 250 249 251 252 253 254 255 257 260 260 253 249 238 225 213 209 204 210 219 228 235 236 239 241 242 244 248 253 257 262 265 268 270 273 277 282 284 283 281 283 283 286 296 301
256 257 258 258 253 248 247 249 252 253 254 255 257 258 260 256 252 242 221 212 211 206 207 217 224 228 232 234 236 238 241 246 250 252 256 259 263 265 266 269 273 272 268 267 267 267 270 283 290
258 258 257 256 250 246 245 246 249 252 253 253 255 257 260 260 254 246 228 219 216 210 211 218 221 225 230 233 235 236 238 243 247 249 250 253 256 257 258 259 259 259 256 254 258 261 267 275 283
262 261 259 256 251 245 244 245 247 250 252 253 254 256 258 260 256 250 241 228 218 213 214 219 219 225 228 230 233 234 237 240 243 246 248 249 249 249 249 249 249 249 247 248 251 255 263 270 275
265 264 262 257 250 243 241 243 245 248 250 252 253 255 259 260 259 253 242 231 218 212 212 217 221 222 224 227 231 233 235 238 240 243 244 244 243 241 240 241 240 240 241 245 247 251 257 262 268
268 267 264 256 250 243 239 240 242 245 247 250 252 254 256 257 257 251 249 238 221 215 211 212 216 218 221 224 228 231 235 237 239 240 240 240 239 236 234 234 233 233 238 243 244 247 253 259 266
270 268 264 258 252 245 240 239 240 243 245 248 250 253 254 255 254 253 256 248 231 223 215 212 213 217 221 223 226 230 233 236 237 238 239 237 234 233 232 232 231 231 235 239 244 249 254 261 268
274 271 266 260 254 248 242 239 239 242 243 246 248 250 251 253 254 254 255 251 239 234 221 213 216 219 222 226 230 232 234 234 236 238 237 235 233 231 231 230 231 231 234 238 243 250 256 263 270
276 272 267 262 257 252 246 240 239 240 242 244 246 248 250 252 252 249 247 247 241 234 220 218 222 224 224 226 230 233 235 235 236 237 237 235 232 231 230 230 231 233 236 240 245 253 261 269 274
277 273 268 264 258 253 249 243 240 239 240 242 244 245 247 247 246 244 242 241 240 233 225 223 222 222 224 227 230 232 234 235 235 235 236 235 234 234 233 232 233 236 240 243 249 255 262 268 275
276 271 267 262 257 252 249 244 242 239 239 240 241 242 243 244 242 240 237 234 237 231 230 229 227 228 229 230 231 233 235 237 236 236 236 236 236 237 238 238 239 241 245 248 253 257 263 270 275
274 269 263 259 254 250 248 244 241 239 237 237 237 238 239 241 239 237 234 231 234 234 235 234 233 230 232 233 233 234 237 238 238 238 238 238 239 241 243 243 244 246 250 252 254 258 264 270 277
271 267 262 255 252 249 248 246 240 239 236 235 235 235 235 237 236 234 232 233 233 236 238 240 239 235 233 233 234 237 239 239 239 240 241 241 242 244 246 248 248 249 251 253 255 258 264 269 274
270 267 262 255 251 248 247 247 243 241 239 236 235 233 232 232 232 232 231 233 235 238 242 247 247 243 239 238 238 240 241 241 239 240 241 242 242 244 246 248 249 251 254 257 259 263 268 270 274
270 267 262 255 251 249 248 248 245 242 240 237 235 234 232 231 229 231 232 234 238 243 247 251 250 247 244 242 243 241 242 242 242 243 243 242 242 243 245 247 250 254 257 260 262 266 269 271 274
272 269 262 251 247 248 248 249 248 244 240 238 236 234 232 231 228 229 232 235 241 245 249 252 254 253 249 247 245 241 243 244 243 245 246 245 244 243 245 249 252 254 257 260 264 267 268 270 272
273 267 259 244 240 246 248 250 248 246 241 239 238 235 231 230 229 229 231 235 240 245 249 254 257 255 252 250 248 244 244 244 245 247 249 248 246 246 247 250 254 256 258 261 265 269 270 273 274
271 262 252 243 241 244 250 250 245 242 240 240 238 234 230 228 227 228 231 234 238 242 247 253 256 255 255 254 250 247 247 246 246 249 249 249 248 248 249 251 255 256 258 262 267 270 274 275 276
268 259 251 245 244 244 247 251 247 241 238 239 237 233 230 227 227 228 231 234 237 241 244 248 252 257 259 256 254 253 247 247 248 250 250 251 250 249 250 253 256 257 260 265 269 272 275 278 279
266 259 253 248 247 248 247 251 250 243 240 239 237 232 229 228 226 228 231 234 237 241 244 245 248 253 257 257 260 257 257 257 256 256 254 253 253 253 253 256 258 262 264 269 273 275 277 280 282
262 258 254 251 250 251 248 250 250 247 242 241 237 233 230 227 227 228 230 232 235 238 241 246 250 255 260 261 263 261 266 265 266 268 264 259 257 256 258 262 263 265 268 270 273 277 278 280 282
261 256 253 253 255 254 253 250 254 254 248 247 244 239 235 232 229 229 230 231 233 235 240 245 251 255 261 264 265 267 270 270 271 271 272 271 265 262 265 266 266 268 270 272 276 279 280 281 283
259 251 250 253 256 257 258 257 259 263 255 254 250 243 239 233 230 229 232 234 235 237 241 247 250 256 259 261 263 266 268 271 273 272 271 271 269 269 270 272 273 275 276 278 280 281 282 284 285
254 246 247 251 255 259 263 262 264 266 266 263 258 247 240 236 235 235 235 236 237 239 243 247 250 255 257 259 261 264 266 269 269 269 268 268 269 274 278 280 282 282 283 283 283 284 284 285 287
252 247 246 249 255 260 267 271 270 274 279 272 259 254 247 245 243 239 238 238 240 243 247 250 252 254 256 257 259 263 267 268 268 269 269 271 274 278 280 282 283 285 285 286 286 287 288 288 289
252 248 248 249 254 263 272 273 273 281 289 279 271 267 253 249 247 242 241 241 242 244 248 249 250 251 254 257 260 264 266 266 267 269 272 275 277 278 281 283 285 286 288 288 289 290 291 291 290
Height
5862 5864 5865 5867 5868 5869 5870 5870 5871 5871 5872 5873 5874 5875 5876 5877 5879 5881 5881 5880 5880 5882 5883 5885 5887 5888 5889 5890 5890 5891 5892 5893 5894 5895 5896 5896 5897 5897 5897 5897 5897 5897 5897 5897 5897 5896 5896 5896 5895
5859 5860 5862 5863 5865 5866 5868 5868 5868 5868 5869 5870 5872 5873 5873 5874 5875 5876 5877 5877 5878 5879 5881 5882 5884 5886 5887 5888 5888 5889 5890 5891 5892 5893 5894 5895 5895 5895 5896 5896 5896 5896 5896 5896 5896 5896 5895 5895 5895
5855 5857 5858 5860 5862 5864 5865 5865 5864 5864 5866 5867 5869 5870 5870 5871 5872 5872 5873 5874 5876 5877 5878 5880 5882 5883 5884 5885 5886 5887 5888 5889 5890 5891 5892 5893 5893 5893 5894 5894 5894 5894 5895 5895 5895 5895 5894 5894 5894
5852 5853 5854 5856 5859 5861 5862 5861 5860 5861 5862 5864 5866 5867 5868 5869 5869 5870 5870 5871 5873 5874 5875 5877 5879 5880 5882 5883 5884 5884 5885 5887 5888 5889 5890 5890 5891 5891 5892 5892 5892 5893 5893 5893 5893 5894 5894 5894 5894
5848 5849 5850 5852 5855 5857 5858 5857 5857 5857 5859 5861 5862 5863 5864 5865 5866 5867 5867 5868 5870 5871 5872 5874 5875 5877 5878 5880 5881 5882 5883 5884 5885 5886 5887 5888 5889 5890 5890 5890 5890 5891 5892 5892 5892 5893 5893 5893 5893
5844 5844 5846 5848 5851 5853 5854 5853 5852 5853 5855 5857 5858 5859 5861 5862 5864 5864 5864 5865 5867 5868 5869 5871 5872 5874 5875 5877 5878 5879 5880 5881 5883 5884 5885 5886 5887 5888 5888 5888 5889 5889 5890 5890 5891 5891 5892 5892 5892
5839 5840 5841 5843 5846 5848 5849 5848 5848 5848 5850 5853 5854 5855 5857 5859 5861 5862 5862 5863 5864 5865 5866 5868 5869 5871 5872 5874 5875 5876 5877 5879 5880 5881 5883 5884 5885 5886 5886 5887 5887 5888 5888 5889 5890 5890 5891 5891 5890
5833 5835 5836 5838 5840 5843 5843 5843 5843 5843 5845 5848 5850 5852 5854 5856 5858 5859 5860 5861 5862 5863 5864 5865 5867 5868 5869 5871 5872 5873 5874 5876 5877 5879 5880 5882 5883 5884 5884 5885 5885 5886 5887 5887 5888 5888 5889 5889 5889
5828 5830 5831 5832 5833 5836 5836 5836 5837 5838 5840 5842 5845 5848 5851 5852 5855 5856 5857 5857 5858 5860 5862 5863 5864 5865 5866 5868 5869 5870 5872 5873 5874 5876 5877 5879 5880 5881 5882 5883 5884 5884 5885 5886 5886 5887 5887 5887 5887
5822 5823 5825 5825 5826 5827 5828 5829 5830 5832 5834 5837 5840 5843 5846 5849 5852 5853 5854 5854 5855 5857 5859 5860 5861 5862 5863 5865 5866 5868 5869 5870 5872 5873 5875 5876 5878 5879 5880 5881 5882 5882 5883 5883 5884 5885 5885 5885 5886
5815 5817 5817 5817 5818 5819 5821 5822 5823 5825 5829 5832 5835 5839 5842 5845 5848 5850 5851 5852 5853 5854 5856 5857 5858 5859 5861 5862 5863 5865 5866 5867 5869 5870 5872 5873 5875 5876 5877 5878 5879 5880 5880 5881 5882 5882 5883 5883 5883
5809 5809 5809 5810 5810 5812 5814 5815 5817 5819 5824 5826 5830 5833 5838 5842 5845 5846 5848 5850 5851 5852 5853 5854 5855 5856 5857 5859 5860 5862 5863 5864 5866 5867 5869 5870 5872 5873 5875 5876 5877 5877 5878 5878 5879 5880 5880 5881 5881
5801 5802 5802 5803 5804 5805 5807 5809 5811 5814 5818 5820 5824 5828 5833 5837 5841 5843 5845 5846 5848 5849 5850 5851 5852 5853 5855 5856 5857 5859 5860 5862 5863 5864 5866 5868 5869 5870 5871 5872 5873 5874 5875 5875 5876 5877 5877 5878 5878
5794 5794 5795 5796 5797 5798 5800 5802 5804 5808 5811 5814 5818 5823 5828 5833 5837 5839 5841 5843 5844 5846 5846 5847 5849 5850 5851 5853 5854 5855 5857 5859 5860 5861 5863 5864 5866 5867 5868 5869 5870 5871 5872 5872 5873 5873 5873 5874 5873
5787 5787 5788 5789 5789 5790 5792 5795 5798 5801 5804 5808 5812 5817 5822 5827 5832 5835 5837 5838 5840 5842 5843 5844 5845 5847 5848 5850 5851 5852 5854 5856 5857 5858 5860 5861 5862 5863 5864 5866 5866 5867 5868 5869 5869 5869 5869 5869 5869
5780 5781 5782 5782 5782 5783 5786 5788 5791 5793 5796 5801 5805 5810 5816 5821 5826 5830 5832 5834 5836 5838 5840 5841 5842 5843 5844 5846 5847 5849 5851 5852 5854 5855 5856 5857 5858 5859 5860 5861 5862 5863 5863 5864 5864 5865 5865 5864 5864
5774 5775 5776 5777 5776 5777 5778 5781 5785 5786 5789 5793 5798 5803 5809 5814 5820 5824 5827 5829 5831 5833 5835 5837 5837 5838 5839 5841 5843 5845 5847 5848 5849 5850 5851 5852 5854 5855 5856 5857 5858 5858 5859 5859 5859 5860 5859 5859 5859
5769 5769 5770 5771 5771 5771 5772 5775 5778 5780 5783 5786 5790 5796 5801 5807 5813 5818 5822 5824 5826 5828 5830 5832 5832 5833 5835 5836 5838 5840 5841 5842 5844 5845 5846 5848 5849 5850 5851 5852 5852 5853 5854 5854 5854 5855 5854 5854 5853
5765 5765 5766 5766 5766 5766 5767 5770 5772 5774 5776 5780 5784 5789 5794 5801 5807 5811 5815 5818 5821 5823 5825 5826 5826 5827 5829 5831 5832 5834 5835 5837 5838 5840 5841 5842 5843 5845 5846 5847 5847 5848 5848 5849 5849 5849 5849 5848 5848
5761 5761 5762 5762 5761 5762 5763 5765 5767 5769 5771 5774 5778 5782 5787 5793 5799 5804 5809 5813 5816 5818 5820 5821 5821 5822 5824 5825 5826 5827 5829 5830 5832 5834 5835 5836 5837 5839 5840 5841 5841 5842 5843 5843 5843 5843 5843 5842 5841
5757 5758 5758 5758 5758 5758 5760 5762 5763 5765 5767 5769 5772 5776 5781 5786 5792 5798 5803 5807 5810 5813 5815 5816 5816 5817 5818 5819 5820 5821 5822 5823 5825 5828 5829 5829 5831 5832 5833 5834 5835 5836 5836 5837 5837 5837 5836 5836 5835
5754 5754 5754 5754 5755 5756 5757 5758 5760 5761 5762 5765 5767 5771 5775 5780 5785 5791 5796 5800 5803 5807 5809 5811 5811 5812 5812 5812 5813 5814 5815 5817 5819 5821 5822 5823 5824 5826 5827 5828 5829 5830 5830 5830 5830 5830 5830 5829 5828
5751 5751 5751 5751 5752 5753 5754 5755 5757 5757 5759 5761 5763 5766 5770 5775 5779 5784 5789 5793 5797 5800 5803 5805 5806 5807 5806 5806 5807 5808 5809 5811 5812 5814 5815 5817 5817 5819 5821 5822 5823 5823 5824 5824 5824 5824 5823 5823 5822
5747 5748 5748 5748 5749 5750 5751 5752 5753 5754 5756 5758 5759 5762 5765 5769 5773 5778 5782 5786 5790 5793 5796 5798 5800 5801 5800 5801 5803 5804 5804 5804 5806 5808 5809 5811 5812 5812 5814 5815 5816 5817 5817 5818 5818 5818 5817 5816 5815
5744 5744 5745 5745 5746 5747 5748 5748 5750 5751 5752 5754 5756 5758 5761 5764 5768 5772 5776 5779 5783 5786 5789 5791 5793 5794 5795 5795 5797 5798 5799 5800 5801 5803 5804 5805 5805 5806 5808 5809 5809 5810 5811 5811 5811 5811 5810 5809 5808
5740 5741 5742 5743 5743 5744 5745 5746 5748 5748 5749 5751 5753 5754 5757 5760 5763 5766 5770 5773 5777 5780 5783 5785 5786 5788 5789 5790 5791 5793 5794 5794 5796 5797 5798 5799 5799 5800 5802 5803 5803 5804 5804 5804 5804 5803 5802 5801 5799
5737 5738 5739 5740 5741 5741 5742 5743 5745 5745 5747 5748 5749 5751 5753 5755 5758 5761 5764 5768 5771 5774 5777 5779 5780 5781 5783 5785 5786 5788 5789 5789 5791 5792 5792 5793 5794 5795 5796 5797 5797 5797 5797 5797 5796 5795 5794 5792 5791
5735 5735 5737 5737 5738 5739 5739 5740 5742 5743 5743 5745 5745 5747 5749 5751 5753 5756 5759 5762 5765 5768 5770 5773 5774 5775 5776 5778 5780 5782 5782 5783 5785 5785 5786 5787 5788 5789 5790 5790 5790 5790 5789 5789 5788 5786 5784 5783 5781
5733 5734 5734 5735 5736 5737 5737 5741 5740 5740 5740 5740 5741 5742 5744 5746 5749 5751 5753 5756 5759 5762 5764 5766 5768 5769 5770 5772 5773 5775 5776 5777 5779 5780 5780 5781 5782 5783 5783 5783 5783 5782 5781 5780 5779 5777 5776 5774 5772
5731 5731 5732 5734 5735 5735 5736 5740 5737 5737 5737 5737 5737 5738 5739 5741 5744 5746 5748 5750 5753 5755 5758 5760 5761 5763 5764 5766 5767 5769 5770 5771 5772 5774 5774 5774 5775 5775 5775 5775 5775 5774 5773 5771 5770 5768 5766 5764 5762